Regional Weather Roundup
Issued by NWS

Home | Current Version | Previous Version | Graphics & Text | Print | Product List | Glossary On
Versions: 1 2 3 4 5 6 7 8 9 10 11 12 13 14 15 16 17 18 19 20 21 22 23 24 25 26 27 28 29 30 31 32 33 34 35 36 37 38 39 40 41 42 43 44 45 46 47 48 49 50
000
ASUS43 KLMK 240410
RWRKY
KENTUCKY REGIONAL WEATHER ROUNDUP
NATIONAL WEATHER SERVICE LOUISVILLE KY
1200 AM EDT TUE MAY 24 2016

NOTE "FAIR" INDICATES FEW OR NO CLOUDS BELOW 12,000 FEET
WITH NO SIGNIFICANT WEATHER AND/OR OBSTRUCTIONS TO VISIBILITY.

KYZ001>023-026-027-061>063-070>075-240500-
WESTERN AND SOUTH CENTRAL KENTUCKY

CITY           SKY/WX    TMP DP  RH WIND       PRES   REMARKS
PADUCAH        PTCLDY    66  56  70 S5        29.97S
HENDERSON      CLEAR     66  48  52 SE3       29.98S
OWENSBORO      CLEAR     67  50  54 SE5       30.01R
HOPKINSVILLE   CLEAR     67  52  59 SE2       29.99S
BOWLING GREEN  CLEAR     61  52  72 CALM      30.02S
GLASGOW        CLEAR     55  49  81 E3        30.03F
$$

KYZ024-025-028>034-038-045-046-053-240500-
NORTH CENTRAL KENTUCKY

CITY           SKY/WX    TMP DP  RH WIND       PRES   REMARKS
LOUISVILLE/SDF CLEAR     67  50  54 S5        30.03R
LOUISVILLE/LOU CLEAR     67  50  54 CALM      30.04R
FORT KNOX      CLEAR     57  50  78 CALM      30.02S
$$

KYZ035>037-039>044-047>052-055>060-089>105-240500-
NORTHEAST KENTUCKY

CITY           SKY/WX    TMP DP  RH WIND       PRES   REMARKS
LEXINGTON      CLEAR     59  52  77 CALM      30.05S
COVINGTON      CLEAR     55  51  86 S5        30.05R
FRANKFORT      PTCLDY    57  50  77 CALM      30.04R
$$

KYZ054-064>069-076>088-106>120-240500-
SOUTHEAST KENTUCKY

CITY           SKY/WX    TMP DP  RH WIND       PRES   REMARKS
JACKSON        CLEAR     63  49  60 SE3       30.07S
LONDON         CLEAR     56  51  84 CALM      30.06S
SOMERSET       CLEAR     55  50  82 CALM      30.07R
MIDDLESBORO    CLEAR     54  51  90 CALM      30.08S
MONTICELLO     CLEAR     53  51  93 W12       30.07S
$$




USA.gov is the U.S. government's official web portal to all federal, state and local government web resources and services.